| time (UTC) | temp C | wind direction | speed KPH | gust KPH | rain 1hr cm | rain 24hr cm | rain mn cm | humidity % | barometer mb |
| 20260508091514 | 9 | 336 | 0.0 | 9.7 | 0.00 | 0.00 | 0.00 | 70 | 1011.8 |
| 20260508090025 | 7 | 336 | 4.8 | 14.5 | 0.00 | 0.00 | 0.00 | 75 | 1012.1 |
| 20260508084504 | 7 | 246 | 0.0 | 3.2 | 0.00 | 0.00 | 0.00 | 73 | 1011.3 |
| 20260508083008 | 7 | 246 | 0.0 | 3.2 | 0.00 | 0.00 | 0.00 | 72 | 1011.1 |
| 20260508081510 | 7 | 246 | 0.0 | 4.8 | 0.00 | 0.03 | 0.00 | 73 | 1011.2 |
| 20260508080015 | 7 | 336 | 0.0 | 0.0 | 0.00 | 0.03 | 0.00 | 72 | 1011.2 |
| 20260508074512 | 7 | 336 | 0.0 | 0.0 | 0.00 | 0.03 | 0.00 | 70 | 1011.3 |
| 20260508073004 | 8 | 336 | 0.0 | 3.2 | 0.00 | 0.03 | 0.00 | 67 | 1011.5 |
| 20260508071510 | 10 | 248 | 0.0 | 3.2 | 0.00 | 0.03 | 0.00 | 63 | 1011.6 |
| 20260508070014 | 10 | 221 | 0.0 | 8.0 | 0.00 | 0.03 | 0.00 | 61 | 1011.6 |
| 20260508064517 | 11 | 209 | 3.2 | 9.7 | 0.00 | 0.03 | 0.00 | 59 | 1011.6 |
| 20260508063005 | 11 | 232 | 3.2 | 8.0 | 0.00 | 0.03 | 0.00 | 57 | 1011.7 |
| 20260508061506 | 11 | 188 | 3.2 | 8.0 | 0.00 | 0.03 | 0.00 | 56 | 1011.7 |
| 20260508060010 | 12 | 194 | 4.8 | 8.0 | 0.00 | 0.03 | 0.00 | 55 | 1011.7 |
| 20260508054517 | 12 | 203 | 4.8 | 8.0 | 0.00 | 0.03 | 0.00 | 54 | 1011.8 |
| 20260508053041 | 12 | 196 | 3.2 | 11.3 | 0.00 | 0.03 | 0.00 | 52 | 1011.9 |
| 20260508051508 | 13 | 204 | 6.4 | 11.3 | 0.00 | 0.03 | 0.00 | 52 | 1011.9 |
| 20260508050008 | 13 | 215 | 6.4 | 14.5 | 0.00 | 0.03 | 0.00 | 53 | 1012.1 |
| 20260508044516 | 13 | 213 | 8.0 | 14.5 | 0.00 | 0.03 | 0.03 | 52 | 1012.4 |
| 20260508043023 | 14 | 192 | 6.4 | 14.5 | 0.00 | 0.03 | 0.03 | 50 | 1012.4 |
| 20260508041547 | 14 | 206 | 6.4 | 12.9 | 0.00 | 0.03 | 0.03 | 49 | 1012.5 |
| 20260508040008 | 14 | 193 | 6.4 | 12.9 | 0.00 | 0.03 | 0.03 | 47 | 1012.8 |
| 20260508034512 | 13 | 209 | 3.2 | 6.4 | 0.00 | 0.03 | 0.03 | 48 | 1012.8 |
| 20260508033020 | 13 | 202 | 1.6 | 6.4 | 0.00 | 0.03 | 0.03 | 49 | 1012.8 |
| 20260508031521 | 13 | 190 | 1.6 | 4.8 | 0.00 | 0.03 | 0.03 | 49 | 1012.6 |
| 20260508030032 | 14 | 187 | 1.6 | 4.8 | 0.00 | 0.03 | 0.03 | 1012.5 | |
| 20260508024510 | 15 | 191 | 3.2 | 4.8 | 0.00 | 0.03 | 0.03 | 44 | 1012.4 |
| 20260508023020 | 16 | 195 | 0.0 | 3.2 | 0.00 | 0.03 | 0.03 | 42 | 1012.1 |
| 20260508021521 | 16 | 197 | 0.0 | 3.2 | 0.00 | 0.03 | 0.03 | 42 | 1012.0 |
| 20260508020030 | 17 | 197 | 0.0 | 3.2 | 0.00 | 0.03 | 0.03 | 40 | 1011.9 |
| 20260508014525 | 19 | 199 | 1.6 | 3.2 | 0.00 | 0.03 | 0.03 | 38 | 1011.6 |
| 20260508013012 | 20 | 274 | 0.0 | 3.2 | 0.00 | 0.03 | 0.03 | 37 | 1011.6 |
| 20260508011520 | 21 | 300 | 0.0 | 3.2 | 0.00 | 0.03 | 0.03 | 34 | 1011.7 |
| 20260508010024 | 22 | 300 | 0.0 | 3.2 | 0.00 | 0.03 | 0.03 | 27 | 1011.7 |
| 20260508004523 | 23 | 347 | 0.0 | 3.2 | 0.00 | 0.03 | 0.03 | 24 | 1011.7 |
| 20260508003024 | 24 | 330 | 0.0 | 3.2 | 0.00 | 0.03 | 0.03 | 23 | 1011.7 |
| 20260508001520 | 25 | 326 | 1.6 | 8.0 | 0.00 | 0.03 | 0.03 | 20 | 1011.6 |
| 20260508000023 | 25 | 315 | 1.6 | 8.0 | 0.00 | 0.05 | 0.03 | 21 | 1011.5 |
| 20260507234525 | 26 | 303 | 3.2 | 11.3 | 0.00 | 0.05 | 0.03 | 21 | 1011.7 |
| 20260507233007 | 26 | 323 | 4.8 | 9.7 | 0.00 | 0.10 | 0.03 | 20 | 1011.7 |
| 20260507231503 | 26 | 321 | 1.6 | 6.4 | 0.00 | 0.10 | 0.03 | 21 | 1011.9 |
| 20260507230003 | 26 | 333 | 1.6 | 11.3 | 0.00 | 0.10 | 0.03 | 21 | 1012.0 |
| 20260507224503 | 26 | 329 | 3.2 | 11.3 | 0.00 | 0.10 | 0.03 | 21 | 1012.0 |
| 20260507223004 | 26 | 262 | 1.6 | 9.7 | 0.00 | 0.10 | 0.03 | 22 | 1012.2 |
| 20260507221503 | 26 | 5 | 0.0 | 16.1 | 0.00 | 0.10 | 0.03 | 22 | 1012.3 |
| 20260507220003 | 26 | 332 | 0.0 | 16.1 | 0.00 | 0.10 | 0.03 | 23 | 1012.4 |
| 20260507214504 | 26 | 265 | 1.6 | 8.0 | 0.00 | 0.10 | 0.03 | 24 | 1012.5 |
| 20260507213010 | 25 | 310 | 1.6 | 12.9 | 0.00 | 0.10 | 0.03 | 22 | 1012.7 |
| 20260507211502 | 25 | 326 | 6.4 | 14.5 | 0.00 | 0.10 | 0.03 | 23 | 1013.0 |
| 20260507210006 | 25 | 240 | 4.8 | 11.3 | 0.00 | 0.10 | 0.03 | 24 | 1013.3 |
| 20260507204504 | 25 | 289 | 3.2 | 16.1 | 0.00 | 0.10 | 0.03 | 24 | 1013.4 |
| 20260507203004 | 25 | 332 | 1.6 | 12.9 | 0.00 | 0.10 | 0.03 | 25 | 1013.7 |
| 20260507201512 | 25 | 290 | 3.2 | 12.9 | 0.00 | 0.10 | 0.03 | 25 | 1014.0 |
| 20260507200009 | 25 | 286 | 3.2 | 9.7 | 0.00 | 0.10 | 0.03 | 25 | 1014.2 |
| 20260507194509 | 24 | 254 | 3.2 | 11.3 | 0.00 | 0.13 | 0.03 | 26 | 1014.4 |
| 20260507193008 | 24 | 265 | 3.2 | 9.7 | 0.00 | 0.13 | 0.03 | 26 | 1014.6 |
| 20260507191511 | 23 | 302 | 3.2 | 9.7 | 0.00 | 0.13 | 0.03 | 25 | 1014.8 |
| 20260507190005 | 23 | 313 | 4.8 | 9.7 | 0.00 | 0.13 | 0.03 | 28 | 1015.0 |
| 20260507184508 | 22 | 293 | 1.6 | 16.1 | 0.00 | 0.13 | 0.03 | 31 | 1015.2 |
| 20260507183007 | 22 | 360 | 3.2 | 22.5 | 0.00 | 0.13 | 0.03 | 33 | 1015.5 |
| 20260507181508 | 21 | 293 | 6.4 | 17.7 | 0.00 | 0.15 | 0.03 | 35 | 1015.6 |
| 20260507180009 | 21 | 265 | 4.8 | 14.5 | 0.00 | 0.15 | 0.03 | 34 | 1015.8 |
| 20260507174516 | 20 | 348 | 1.6 | 9.7 | 0.00 | 0.15 | 0.03 | 39 | 1016.0 |
| 20260507173010 | 19 | 360 | 3.2 | 16.1 | 0.00 | 0.18 | 0.03 | 43 | 1016.2 |
| 20260507171513 | 18 | 313 | 3.2 | 12.9 | 0.00 | 0.18 | 0.03 | 46 | 1016.6 |
| 20260507170011 | 17 | 352 | 4.8 | 14.5 | 0.00 | 0.18 | 0.03 | 49 | 1016.7 |
| 20260507164510 | 16 | 296 | 3.2 | 14.5 | 0.00 | 0.18 | 0.03 | 52 | 1016.9 |
| 20260507163013 | 16 | 337 | 3.2 | 16.1 | 0.00 | 0.18 | 0.03 | 57 | 1017.1 |
| 20260507161509 | 15 | 296 | 4.8 | 16.1 | 0.00 | 0.18 | 0.03 | 58 | 1017.2 |
| 20260507160014 | 15 | 12 | 3.2 | 8.0 | 0.00 | 0.18 | 0.03 | 60 | 1017.3 |
| 20260507154514 | 13 | 343 | 3.2 | 14.5 | 0.00 | 0.18 | 0.03 | 63 | 1017.4 |
| 20260507153015 | 13 | 298 | 1.6 | 4.8 | 0.00 | 0.20 | 0.03 | 69 | 1017.6 |
| 20260507151513 | 12 | 298 | 1.6 | 4.8 | 0.00 | 0.20 | 0.03 | 75 | 1017.7 |
| 20260507150017 | 10 | 313 | 3.2 | 6.4 | 0.00 | 0.25 | 0.03 | 79 | 1017.6 |
| 20260507144516 | 10 | 306 | 1.6 | 9.7 | 0.00 | 0.28 | 0.03 | 81 | 1017.7 |
| 20260507143021 | 8 | 350 | 3.2 | 11.3 | 0.00 | 0.30 | 0.03 | 84 | 1017.8 |
| 20260507141503 | 7 | 329 | 1.6 | 9.7 | 0.00 | 0.30 | 0.03 | 87 | 1017.8 |
| 20260507140007 | 6 | 250 | 4.8 | 16.1 | 0.00 | 0.30 | 0.03 | 91 | 1017.8 |
| 20260507134516 | 5 | 262 | 3.2 | 11.3 | 0.00 | 0.30 | 0.03 | 92 | 1018.1 |
| 20260507133014 | 4 | 260 | 3.2 | 11.3 | 0.00 | 0.33 | 0.03 | 93 | 1018.2 |
| 20260507131528 | 3 | 269 | 3.2 | 9.7 | 0.00 | 0.33 | 0.03 | 93 | 1018.3 |
| 20260507130025 | 2 | 219 | 1.6 | 9.7 | 0.00 | 0.33 | 0.03 | 94 | 1018.5 |
| 20260507124515 | 2 | 259 | 4.8 | 11.3 | 0.00 | 0.33 | 0.03 | 94 | 1018.3 |
| 20260507123013 | 1 | 235 | 1.6 | 4.8 | 0.00 | 0.33 | 0.03 | 94 | 1018.3 |
| 20260507121518 | 1 | 254 | 3.2 | 6.4 | 0.00 | 0.33 | 0.03 | 93 | 1018.4 |
| 20260507120038 | 0 | 275 | 3.2 | 9.7 | 0.00 | 0.33 | 0.03 | 93 | 1018.1 |
| 20260507114508 | 0 | 254 | 1.6 | 8.0 | 0.00 | 0.33 | 0.03 | 93 | 1018.3 |
| 20260507113033 | 1 | 266 | 1.6 | 11.3 | 0.00 | 0.33 | 0.03 | 93 | 1018.3 |
| 20260507111518 | 1 | 283 | 3.2 | 9.7 | 0.00 | 0.33 | 0.03 | 93 | 1018.6 |
| 20260507110026 | 1 | 238 | 1.6 | 6.4 | 0.00 | 0.33 | 0.03 | 93 | 1018.7 |
| 20260507104525 | 1 | 294 | 1.6 | 9.7 | 0.00 | 0.33 | 0.03 | 93 | 1018.8 |
| 20260507103009 | 1 | 259 | 1.6 | 8.0 | 0.00 | 0.33 | 0.03 | 93 | 1018.9 |
| 20260507101516 | 1 | 257 | 1.6 | 8.0 | 0.00 | 0.36 | 0.03 | 93 | 1018.9 |
| 20260507100034 | 1 | 253 | 3.2 | 11.3 | 0.00 | 0.38 | 0.03 | 93 | 1019.1 |
| 20260507094524 | 1 | 263 | 3.2 | 11.3 | 0.00 | 0.48 | 0.03 | 93 | 1019.3 |
| 20260507093024 | 1 | 277 | 3.2 | 9.7 | 0.00 | 0.51 | 0.03 | 93 | 1019.7 |